Weather History for Boscobel, WI

Change the Weather History Date:

Saturday, February 2, 2013

  Actual Average (KPDC) Record (KPDC)
Temperature  
Mean Temperature 10 °F -  
Max Temperature 15 °F 29 °F 50 °F (2006)
Min Temperature 5 °F 8 °F -30 °F (1965)
Degree Days  
Heating Degree Days 55    
Moisture  
Dew Point 4 °F    
Average Humidity 78    
Maximum Humidity 87    
Minimum Humidity 56    
Precipitation  
Precipitation 0.00 in - - ()
Sea Level Pressure  
Sea Level Pressure 30.10 in    
Wind  
Wind Speed 1 mph (North)    
Max Wind Speed 6 mph    
Max Gust Speed -    
Visibility 6 miles    
Events Snow    
Averages and records for this station are not official NWS values.
T = Trace of Precipitation, MM = Missing Value Source: NWS Daily Summary

Daily Weather History Graph

Daily Weather History Graph

Search for Another Location

Airport:

Trip Planner

Search our weather history database for the weather conditions in past years. The results will help you decide how hot, cold, wet, or windy it might be!

Date:

Astronomy

Feb. 02, 2013 Rise Set
Actual Time 7:16 AM CST 5:16 PM CST
Civil Twilight 6:46 AM CST 5:46 PM CST
Nautical Twilight 6:12 AM CST 6:20 PM CST
Astronomical Twilight 5:39 AM CST 6:54 PM CST
Moon No Moon Rise 10:14 AM CST (2/2)
Length of Visible Light 11h 00m
Length of Day
10h 00m
Waning Gibbous, 59% of the Moon is Illuminated
Feb 2
Waning Gibbous
Feb 3
Last Quarter
Feb 10
New
Feb 17
First Quarter
Feb 25
Full

Hourly Weather History & Observations

Time (CST) Temp. Windchill Dew Point Humidity Pressure Visibility Wind Dir Wind Speed Gust Speed Precip Events Conditions
12:03 AM 6.8 °F - 3.2 °F 85% 30.09 in 1.8 mi Calm Calm - 0.00 in Snow Light Snow
12:14 AM 6.8 °F - 3.2 °F 85% 30.09 in 2.5 mi Calm Calm - 0.00 in Snow Light Snow
12:22 AM 6.8 °F - 3.2 °F 85% 30.08 in 4.0 mi Calm Calm - 0.00 in Snow Light Snow
12:33 AM 6.8 °F - 3.2 °F 85% 30.08 in 4.0 mi Calm Calm - 0.00 in Snow Light Snow
12:53 AM 7.0 °F 0.1 °F 3.0 °F 84% 30.13 in 5.0 mi NE 3.5 mph - 0.00 in Snow Light Snow
1:53 AM 7.0 °F 0.1 °F 3.9 °F 87% 30.11 in 4.0 mi NE 3.5 mph - 0.00 in   Overcast
2:33 AM 8.6 °F - 3.2 °F 79% 30.05 in 2.0 mi Calm Calm - 0.00 in Snow Light Snow
2:41 AM 8.6 °F - 3.2 °F 79% 30.05 in 1.5 mi Calm Calm - 0.00 in Snow Light Snow
2:53 AM 8.1 °F - 3.9 °F 83% 30.11 in 1.8 mi Calm Calm - 0.00 in Snow Light Snow
3:00 AM 8.6 °F - 3.2 °F 79% 30.05 in 2.5 mi Calm Calm - 0.00 in Snow Light Snow
3:13 AM 8.6 °F 2.0 °F 3.2 °F 79% 30.05 in 3.0 mi NE 3.5 mph - 0.00 in Snow Light Snow
3:53 AM 8.1 °F 1.4 °F 5.0 °F 87% 30.09 in 8.0 mi NNE 3.5 mph - 0.00 in   Overcast
4:53 AM 8.1 °F 1.4 °F 3.9 °F 83% 30.10 in 8.0 mi NNE 3.5 mph - N/A   Overcast
5:53 AM 8.1 °F 1.4 °F 3.9 °F 83% 30.11 in 8.0 mi NE 3.5 mph - N/A   Overcast
6:14 AM 8.6 °F - 3.2 °F 79% 30.07 in 10.0 mi Calm Calm - N/A   Overcast
6:53 AM 8.1 °F 1.4 °F 3.0 °F 80% 30.15 in 10.0 mi NNE 3.5 mph - N/A   Overcast
7:01 AM 8.6 °F - 3.2 °F 79% 30.10 in 10.0 mi Calm Calm - N/A   Overcast
7:35 AM 8.6 °F - 3.2 °F 79% 30.11 in 10.0 mi Calm Calm - N/A   Overcast
7:53 AM 8.1 °F -0.5 °F 3.0 °F 80% 30.17 in 10.0 mi NNE 4.6 mph - N/A   Overcast
8:53 AM 9.0 °F 2.4 °F 1.9 °F 73% 30.19 in 10.0 mi NNE 3.5 mph - N/A   Overcast
9:53 AM 10.0 °F - 3.0 °F 73% 30.19 in 10.0 mi Calm Calm - N/A   Overcast
10:53 AM 12.0 °F - 1.9 °F 64% 30.19 in 10.0 mi Calm Calm - N/A   Overcast
11:53 AM 12.9 °F 3.8 °F 1.0 °F 59% 30.17 in 10.0 mi NNE 5.8 mph - N/A   Clear
12:53 PM 14.0 °F 8.2 °F 3.0 °F 62% 30.17 in 10.0 mi West 3.5 mph - N/A   Clear
1:53 PM 15.1 °F 7.7 °F 1.9 °F 56% 30.16 in 10.0 mi North 4.6 mph - N/A   Clear
2:53 PM 14.0 °F 6.5 °F 1.9 °F 59% 30.16 in 10.0 mi WNW 4.6 mph - N/A   Clear
3:53 PM 15.1 °F 7.7 °F 3.0 °F 59% 30.15 in 10.0 mi WSW 4.6 mph - N/A   Scattered Clouds
4:53 PM 14.0 °F 8.2 °F 3.0 °F 62% 30.15 in 10.0 mi West 3.5 mph - N/A   Mostly Cloudy
5:53 PM 12.9 °F - 3.0 °F 65% 30.15 in 10.0 mi Calm Calm - N/A   Overcast
6:53 PM 10.9 °F 4.7 °F 3.0 °F 70% 30.14 in 10.0 mi South 3.5 mph - N/A   Overcast
7:53 PM 5.0 °F - 1.0 °F 84% 30.12 in 10.0 mi Calm Calm - N/A   Scattered Clouds
8:53 PM 9.0 °F - 3.9 °F 80% 30.11 in 10.0 mi Calm Calm - N/A   Overcast
9:29 PM 8.6 °F - 5.0 °F 85% 30.05 in 1.8 mi Calm Calm - 0.00 in Snow Light Snow
9:38 PM 10.4 °F - 5.0 °F 79% 30.05 in 2.5 mi Calm Calm - 0.00 in Snow Light Snow
9:49 PM 10.4 °F - 5.0 °F 79% 30.04 in 3.0 mi Calm Calm - 0.00 in Snow Light Snow
9:53 PM 10.0 °F - 6.1 °F 84% 30.09 in 3.0 mi Calm Calm - 0.00 in Snow Light Snow
10:00 PM 10.4 °F - 5.0 °F 79% 30.04 in 1.8 mi Calm Calm - 0.00 in Snow Light Snow
10:07 PM 10.4 °F - 5.0 °F 79% 30.03 in 2.0 mi Calm Calm - 0.00 in Snow Light Snow
10:16 PM 10.4 °F - 6.8 °F 85% 30.03 in 1.5 mi Calm Calm - 0.00 in Snow Light Snow
10:30 PM 10.4 °F - 6.8 °F 85% 30.03 in 2.5 mi Calm Calm - 0.00 in Snow Light Snow
10:53 PM 10.0 °F - 6.1 °F 84% 30.06 in 2.0 mi Calm Calm - 0.00 in Snow Light Snow
11:08 PM 10.4 °F - 6.8 °F 85% 30.02 in 2.0 mi Calm Calm - 0.00 in Snow Light Snow
11:53 PM 10.0 °F - 7.0 °F 87% 30.05 in 2.0 mi Calm Calm - 0.00 in Snow Light Snow